• In Uzbekistan
  • List of Countries
  • For 7 days
  • Water Temperature
  • Satellite Maps
  • Weather Map
  • Weather Widgets
  • user-avatar
    Login

    Hourly Weather Molepolole

    Today, 20 April, Saturday

    Time Temperature Precipitation Wind Pressure Humidity
    00:00 +24°C° 0 mm 2 mps 668 mmHg 39%
    01:00 +23°C° 0 mm 2 mps 668 mmHg 41%
    02:00 +21°C° 0 mm 2 mps 667 mmHg 44%
    03:00 +21°C° 0 mm 2 mps 667 mmHg 46%
    04:00 +20°C° 0 mm 2 mps 667 mmHg 49%
    05:00 +20°C° 0 mm 2 mps 667 mmHg 52%
    06:00 +20°C° 0 mm 2 mps 667 mmHg 53%
    07:00 +21°C° 0 mm 3 mps 668 mmHg 54%
    08:00 +21°C° 0 mm 4 mps 668 mmHg 56%
    09:00 +23°C° 0 mm 4 mps 668 mmHg 49%
    10:00 +27°C° 0 mm 5 mps 669 mmHg 42%
    11:00 +29°C° 0 mm 5 mps 669 mmHg 35%
    12:00 +30°C° 0 mm 4 mps 669 mmHg 31%
    13:00 +32°C° 0 mm 4 mps 668 mmHg 27%
    14:00 +33°C° 0 mm 4 mps 667 mmHg 24%
    15:00 +33°C° 0 mm 3 mps 667 mmHg 24%
    16:00 +31°C° 0 mm 3 mps 666 mmHg 23%
    17:00 +31°C° 0 mm 2 mps 666 mmHg 23%
    18:00 +30°C° 0 mm 2 mps 666 mmHg 25%
    19:00 +29°C° 0 mm 2 mps 666 mmHg 26%
    20:00 +27°C° 0 mm 2 mps 666 mmHg 28%
    21:00 +27°C° 0 mm 3 mps 666 mmHg 29%
    22:00 +26°C° 0 mm 3 mps 666 mmHg 31%
    23:00 +25°C° 0 mm 3 mps 666 mmHg 32%

    Tomorrow, 21 April, Sunday

    Time Temperature Precipitation Wind Pressure Humidity
    00:00 +24°C° 0 mm 3 mps 666 mmHg 35%
    01:00 +22°C° 0 mm 3 mps 666 mmHg 39%
    02:00 +21°C° 0 mm 2 mps 665 mmHg 42%
    03:00 +21°C° 0 mm 2 mps 665 mmHg 44%
    04:00 +21°C° 0 mm 1 mps 665 mmHg 46%
    05:00 +20°C° 0 mm 1 mps 665 mmHg 49%
    06:00 +21°C° 0 mm 1 mps 665 mmHg 48%
    07:00 +21°C° 0 mm 2 mps 666 mmHg 46%
    08:00 +21°C° 0 mm 2 mps 666 mmHg 45%
    09:00 +24°C° 0 mm 3 mps 667 mmHg 40%
    10:00 +27°C° 0 mm 3 mps 667 mmHg 35%
    11:00 +29°C° 0 mm 4 mps 667 mmHg 30%
    12:00 +30°C° 0 mm 4 mps 667 mmHg 27%
    13:00 +32°C° 0 mm 4 mps 666 mmHg 24%
    14:00 +33°C° 0 mm 4 mps 665 mmHg 20%
    15:00 +31°C° 0 mm 3 mps 665 mmHg 20%
    16:00 +31°C° 0 mm 3 mps 665 mmHg 19%
    17:00 +31°C° 0 mm 2 mps 664 mmHg 19%
    18:00 +30°C° 0 mm 2 mps 664 mmHg 21%
    19:00 +28°C° 0 mm 2 mps 664 mmHg 23%
    20:00 +27°C° 0 mm 2 mps 664 mmHg 25%
    21:00 +26°C° 0 mm 3 mps 664 mmHg 29%
    22:00 +26°C° 0 mm 4 mps 664 mmHg 33%
    23:00 +25°C° 0 mm 5 mps 664 mmHg 36%

    Day after tomorrow, 22 April, Monday

    Time Temperature Precipitation Wind Pressure Humidity
    00:00 +23°C° 0 mm 5 mps 664 mmHg 39%
    01:00 +22°C° 0 mm 4 mps 664 mmHg 42%
    02:00 +22°C° 0 mm 4 mps 663 mmHg 45%
    03:00 +21°C° 0 mm 4 mps 663 mmHg 49%
    04:00 +21°C° 0 mm 4 mps 663 mmHg 53%
    05:00 +21°C° 0 mm 4 mps 663 mmHg 57%
    06:00 +21°C° 0 mm 4 mps 664 mmHg 60%
    07:00 +21°C° 0 mm 4 mps 665 mmHg 63%
    08:00 +20°C° 0 mm 5 mps 665 mmHg 66%
    09:00 +22°C° 0 mm 5 mps 665 mmHg 60%
    10:00 +24°C° 0 mm 6 mps 666 mmHg 54%
    11:00 +26°C° 0 mm 6 mps 666 mmHg 48%
    12:00 +27°C° 0 mm 6 mps 666 mmHg 42%
    13:00 +29°C° 0 mm 6 mps 665 mmHg 37%
    14:00 +30°C° 0 mm 5 mps 665 mmHg 32%
    15:00 +29°C° 0 mm 4 mps 664 mmHg 32%
    16:00 +29°C° 0 mm 3 mps 664 mmHg 33%
    17:00 +28°C° 0 mm 2 mps 663 mmHg 33%
    18:00 +27°C° 0.1 mm 3 mps 663 mmHg 35%
    19:00 +26°C° 0.1 mm 4 mps 664 mmHg 37%
    20:00 +26°C° 0.1 mm 5 mps 664 mmHg 39%
    21:00 +25°C° 0 mm 5 mps 664 mmHg 44%
    22:00 +23°C° 0 mm 5 mps 664 mmHg 48%
    23:00 +22°C° 0 mm 5 mps 664 mmHg 53%

    23 April, Tuesday

    Time Temperature Precipitation Wind Pressure Humidity
    00:00 +21°C° 0 mm 5 mps 664 mmHg 56%
    01:00 +21°C° 0 mm 6 mps 664 mmHg 60%
    02:00 +20°C° 0 mm 6 mps 664 mmHg 64%
    03:00 +20°C° 0.5 mm 5 mps 664 mmHg 67%
    04:00 +19°C° 0.5 mm 5 mps 664 mmHg 71%
    05:00 +19°C° 0.5 mm 4 mps 664 mmHg 75%
    06:00 +19°C° 0.8 mm 4 mps 665 mmHg 76%
    07:00 +19°C° 0.8 mm 5 mps 665 mmHg 77%
    08:00 +19°C° 0.8 mm 6 mps 666 mmHg 79%
    09:00 +20°C° 0 mm 6 mps 666 mmHg 75%
    10:00 +21°C° 0 mm 6 mps 666 mmHg 71%
    11:00 +21°C° 0 mm 7 mps 666 mmHg 67%
    12:00 +22°C° 0 mm 6 mps 666 mmHg 63%
    13:00 +23°C° 0 mm 6 mps 665 mmHg 59%
    14:00 +24°C° 0 mm 6 mps 665 mmHg 55%
    15:00 +25°C° 0.4 mm 5 mps 665 mmHg 55%
    16:00 +25°C° 0.4 mm 5 mps 665 mmHg 54%
    17:00 +25°C° 0.4 mm 4 mps 664 mmHg 54%
    18:00 +23°C° 0.7 mm 4 mps 664 mmHg 60%
    19:00 +22°C° 0.7 mm 4 mps 665 mmHg 66%
    20:00 +20°C° 0.7 mm 3 mps 665 mmHg 73%
    21:00 +20°C° 0 mm 3 mps 665 mmHg 75%
    22:00 +19°C° 0 mm 3 mps 664 mmHg 78%
    23:00 +19°C° 0 mm 3 mps 664 mmHg 80%

    24 April, Wednesday

    Time Temperature Precipitation Wind Pressure Humidity
    00:00 +19°C° 0 mm 4 mps 664 mmHg 80%
    01:00 +18°C° 0 mm 4 mps 664 mmHg 80%
    02:00 +17°C° 0 mm 5 mps 664 mmHg 79%
    03:00 +18°C° 0.1 mm 4 mps 664 mmHg 79%
    04:00 +18°C° 0.1 mm 3 mps 664 mmHg 79%
    05:00 +17°C° 0.1 mm 3 mps 664 mmHg 79%
    06:00 +18°C° 0.2 mm 3 mps 665 mmHg 78%
    07:00 +18°C° 0.2 mm 4 mps 665 mmHg 76%
    08:00 +19°C° 0.2 mm 4 mps 666 mmHg 75%
    09:00 +21°C° 0 mm 4 mps 666 mmHg 68%
    10:00 +22°C° 0 mm 5 mps 667 mmHg 61%
    11:00 +25°C° 0 mm 5 mps 667 mmHg 54%
    12:00 +27°C° 0 mm 5 mps 667 mmHg 48%
    13:00 +28°C° 0 mm 5 mps 666 mmHg 42%
    14:00 +30°C° 0 mm 5 mps 666 mmHg 35%
    15:00 +30°C° 0 mm 4 mps 666 mmHg 35%
    16:00 +30°C° 0 mm 3 mps 665 mmHg 34%
    17:00 +30°C° 0 mm 3 mps 665 mmHg 33%
    18:00 +29°C° 0 mm 2 mps 665 mmHg 36%
    19:00 +28°C° 0 mm 2 mps 665 mmHg 39%
    20:00 +27°C° 0 mm 1 mps 665 mmHg 41%
    21:00 +26°C° 0.1 mm 1 mps 665 mmHg 44%
    22:00 +25°C° 0.1 mm 1 mps 665 mmHg 47%
    23:00 +24°C° 0.1 mm 1 mps 665 mmHg 50%

    25 April, Thursday

    Time Temperature Precipitation Wind Pressure Humidity
    00:00 +24°C° 0 mm 1 mps 665 mmHg 52%
    01:00 +23°C° 0 mm 2 mps 665 mmHg 54%
    02:00 +23°C° 0 mm 2 mps 664 mmHg 57%
    03:00 +21°C° 0.1 mm 2 mps 664 mmHg 59%
    04:00 +21°C° 0.1 mm 2 mps 664 mmHg 61%
    05:00 +21°C° 0.1 mm 1 mps 664 mmHg 64%
    06:00 +21°C° 0 mm 2 mps 665 mmHg 63%
    07:00 +21°C° 0 mm 2 mps 666 mmHg 62%
    08:00 +21°C° 0 mm 3 mps 666 mmHg 61%
    09:00 +24°C° 0.1 mm 3 mps 667 mmHg 55%
    10:00 +26°C° 0.1 mm 3 mps 667 mmHg 49%
    11:00 +28°C° 0.1 mm 4 mps 668 mmHg 44%
    12:00 +29°C° 0 mm 4 mps 667 mmHg 38%
    13:00 +32°C° 0 mm 4 mps 667 mmHg 33%
    14:00 +33°C° 0 mm 3 mps 666 mmHg 28%
    15:00 +31°C° 0 mm 3 mps 666 mmHg 28%
    16:00 +31°C° 0 mm 2 mps 666 mmHg 29%
    17:00 +31°C° 0 mm 2 mps 665 mmHg 30%
    18:00 +30°C° 0 mm 1 mps 666 mmHg 32%
    19:00 +29°C° 0 mm 1 mps 666 mmHg 34%
    20:00 +28°C° 0 mm 1 mps 666 mmHg 36%
    21:00 +28°C° 0 mm 1 mps 666 mmHg 37%
    22:00 +27°C° 0 mm 1 mps 666 mmHg 37%
    23:00 +27°C° 0 mm 2 mps 666 mmHg 38%
    Show more